Retour au catalogue

STARLINK-32551

ActifCommunicationsVLEO
NORAD 62166·PAYLOAD·🇺🇸 United States

Lancé Nov 30, 2024 depuis Vandenberg Space Force Base

Loading…

Prochains Passages (prochaines 24 heures)

TLE

FraisSource: CelesTrak SupGP

Époque: Sep 15, 2026, 02:32 UTC

1 62166C 24225D   26258.10604167 -.00037948  00000+0 -31811-2 0  2580
2 62166  70.0014  46.8015 0002622 270.1041 301.3908 14.98339733    11

Suivez STARLINK-32551 en temps réel avec AllMySat

Download on the App Store